METEOR 2-5 DEB, 38272

Orbit data source: Space-Track

METEOR 2-5 DEB, 38272 is space debris in LEO originally from a launch on Wed, 31 Oct 1979 UTC launched from the Plesetsk Missile And Space Complex (PKMTR). Debris objects in space refer to the collection of defunct objects orbiting the Earth. Examples of debris include non-operational satellites, rocket bodies, and fragments generated from explosions, collisions, or faulty payload assembly.

Loading next visibility...
Identifier
38272, 1979-095BS
Orbit
LEO
Country
Flag of CISCIS
Related business
Manufacturer
Unknown
Mission
Spacecraft
Bus & Motor
Unknown
Mass
Unknown
Launch date (UTC)
1979-10-31 (47 years ago)
Launch vehicle
Unknown
Launch site
Plesetsk Missile And Space Complex (PKMTR)
Object type
Payload
Rocket body
Debris
Shape & HBR
Unknown shape, 0.1 m
Radar Cross Section
Small (<0.1 m²)

Expand to show TLE details & history
Last TLE update: 1 week ago

TLE from 1 week ago
0 METEOR 2-5 DEB
1 38272U 79095BS  26165.67150758  .00006772  00000-0  20591-2 0  9992
2 38272  81.1966 137.1591 0033439  41.6986  77.7492 14.41700292660567
Epoch: 2026-06-14T16:06Z
TLE epoch observation values (Epoch: 2026-06-14T16:06:58.254Z)
Latitude
59.11901°
Longitude
157.52099°
Altitude
757.888 km
Speed
7.484 km/s
True Right ascension
20h 08m 55s
True Declination
58° 58' 02"
Sunlit
Object was in daylight at epoch
Visualization orbit readout
Latitude
Unknown
Longitude
Unknown
Altitude
Unknown
Speed
Unknown
Apparent Right ascension
Unknown
Apparent Declination
Unknown
Sunlit
N/A
Visualization observer readout
Local Sidereal Time
04:00:17
Azimuth
Unknown
Elevation
Unknown
Doppler factor
Unknown
Orbital elements
Apogee altitude
773.856 km
Perigee altitude
726.185 km
Semi-major axis
7,128.157 km
Eccentricity
0.00334
Inclination
81.1966°
RAAN
137.1591°
Arg. of periapsis
41.6986°
True anomaly
78.12399°
Mean anomaly
77.7492°
Eccentric anomaly
77.93656°
Mean motion
3.60643 °/min
Orbital period
99.82 mins
BSTAR
0.0020591
Loading maneuver chart data...
Computing Atmospheric mass density...

Documentation

Showing up to 5 results
|